Change the Weather History Date:

Saturday, November 17, 2012

  Actual Average Record
Temperature  
Mean Temperature 74 °F 78 °F  
Max Temperature 79 °F 84 °F 90 °F (1995)
Min Temperature 68 °F 71 °F 59 °F (1895)
Degree Days  
Heating Degree Days 0 0  
Month to date heating degree days 0 0  
Since 1 July heating degree days 0 0  
Cooling Degree Days 9 13  
Month to date cooling degree days 211 227  
Year to date cooling degree days 4076 4173  
Growing Degree Days 22 (Base 50)    
Moisture  
Dew Point 63 °F    
Average Humidity 72    
Maximum Humidity 90    
Minimum Humidity 54    
Precipitation  
Precipitation 0.01 in 0.08 in 7.10 in (1887)
Month to date precipitation 0.13 1.43  
Year to date precipitation 8.50 12.87  
Snow  
Snow 0.00 in - - ()
Month to date snowfall 0.0  
Since 1 July snowfall 0.0  
Since 1 September snowfall 0.0  
Snow Depth 0.00 in    
Sea Level Pressure  
Sea Level Pressure 30.06 in    
Wind  
Wind Speed 12 mph (ENE)    
Max Wind Speed 22 mph    
Max Gust Speed 28 mph    
Visibility 10 miles    
Events Rain    
T = Trace of Precipitation, MM = Missing Value Source: NWS Daily Summary

Daily Weather History Graph

Daily Weather History Graph

Search for Another Location

Airport or City:

Trip Planner

Search our weather history database for the weather conditions in past years. The results will help you decide how hot, cold, wet, or windy it might be!

Date:

Astronomy

Nov. 17, 2012 Rise Set
Actual Time 6:44 AM HST 5:49 PM HST
Civil Twilight 6:20 AM HST 6:12 PM HST
Nautical Twilight 5:53 AM HST 6:39 PM HST
Astronomical Twilight 5:26 AM HST 7:06 PM HST
Moon 10:38 AM HST (11/17) 10:08 PM HST (11/17)
Length of Visible Light 11h 52m
Length of Day
11h 05m
Waxing Crescent, 22% of the Moon is Illuminated
Nov 17
Waxing Crescent
Nov 20
First Quarter
Nov 28
Full
Dec 6
Last Quarter
Dec 12
New

Hourly Weather History & Observations

Time (HST) Temp. Dew Point Humidity Pressure Visibility Wind Dir Wind Speed Gust Speed Precip Events Conditions
12:53 AM 73.0 °F 63.0 °F 71% 30.07 in 10.0 mi ENE 11.5 mph - N/A   Partly Cloudy
1:53 AM 73.0 °F 64.0 °F 73% 30.06 in 10.0 mi ENE 12.7 mph - N/A   Scattered Clouds
2:53 AM 71.1 °F 64.0 °F 78% 30.05 in 10.0 mi ENE 9.2 mph - 0.00 in   Scattered Clouds
3:53 AM 71.1 °F 64.0 °F 78% 30.04 in 10.0 mi ENE 10.4 mph - N/A   Scattered Clouds
4:53 AM 71.1 °F 64.0 °F 78% 30.04 in 10.0 mi NE 9.2 mph - N/A   Scattered Clouds
5:53 AM 71.1 °F 63.0 °F 75% 30.05 in 10.0 mi NE 12.7 mph 21.9 mph 0.00 in Rain Light Rain
6:53 AM 71.1 °F 64.9 °F 81% 30.05 in 10.0 mi ENE 9.2 mph - 0.00 in Rain Light Rain
7:53 AM 71.1 °F 64.0 °F 78% 30.07 in 10.0 mi ENE 12.7 mph - N/A   Mostly Cloudy
8:53 AM 70.0 °F 66.0 °F 87% 30.08 in 6.0 mi NE 15.0 mph 20.7 mph 0.00 in Rain Light Rain
9:53 AM 69.1 °F 66.9 °F 93% 30.09 in 10.0 mi NE 6.9 mph - 0.01 in   Mostly Cloudy
10:53 AM 72.0 °F 64.0 °F 76% 30.08 in 10.0 mi East 9.2 mph - 0.00 in   Mostly Cloudy
11:53 AM 75.9 °F 61.0 °F 60% 30.06 in 10.0 mi ENE 16.1 mph - N/A   Scattered Clouds
12:53 PM 78.1 °F 61.0 °F 56% 30.05 in 10.0 mi ENE 12.7 mph 21.9 mph N/A   Mostly Cloudy
1:53 PM 75.0 °F 63.0 °F 66% 30.03 in 10.0 mi ENE 17.3 mph 23.0 mph N/A   Mostly Cloudy
2:53 PM 73.9 °F 64.0 °F 71% 30.03 in 10.0 mi NE 15.0 mph 23.0 mph 0.00 in   Mostly Cloudy
3:53 PM 75.0 °F 63.0 °F 66% 30.02 in 10.0 mi NE 13.8 mph 23.0 mph N/A   Scattered Clouds
4:53 PM 75.0 °F 62.1 °F 64% 30.03 in 10.0 mi ENE 17.3 mph 25.3 mph N/A   Scattered Clouds
5:53 PM 73.9 °F 64.0 °F 71% 30.05 in 10.0 mi ENE 13.8 mph - N/A   Scattered Clouds
6:53 PM 73.0 °F 62.1 °F 68% 30.06 in 10.0 mi NE 12.7 mph - N/A   Partly Cloudy
7:53 PM 73.0 °F 63.0 °F 71% 30.09 in 10.0 mi East 10.4 mph - N/A   Partly Cloudy
8:53 PM 73.0 °F 63.0 °F 71% 30.10 in 10.0 mi East 9.2 mph - N/A   Partly Cloudy
9:53 PM 73.0 °F 62.1 °F 68% 30.11 in 10.0 mi NE 8.1 mph - N/A   Partly Cloudy
10:53 PM 73.0 °F 62.1 °F 68% 30.10 in 10.0 mi ENE 9.2 mph - N/A   Partly Cloudy
11:53 PM 73.0 °F 63.0 °F 71% 30.10 in 10.0 mi ENE 10.4 mph - N/A   Partly Cloudy